#timestamp,LO_Frequency,Hit,StdDev 
1506297615.1,286046982.6,N
1506297616.0,286046982.6,N
1506297635.8,286046981.2,N
1506297655.7,286046979.5,N
1506297675.5,286046979.5,N
1506297695.3,286046977.4,N
1506297715.2,286046976.0,N
1506297735.9,286046976.8,N
1506297755.7,286046977.2,N
1506297775.5,286046974.7,N
1506297795.4,286046975.6,N
1506297815.2,286046973.3,N
1506297835.0,286046971.5,N
1506297835.9,286046971.5,N
1506297855.8,286046971.8,N
1506297875.6,286046970.9,N
1506297895.4,286046973.6,N
1506297915.3,286046972.1,N
1506297935.1,286046969.6,Y
1506297955.8,286046986.1,P
1506297975.7,286046984.1,P
1506297995.5,286046984.5,P
1506298015.3,286046984.0,Y
1506298035.2,286047000.9,P
1506298055.9,286047001.0,N
1506298075.7,286046999.7,N
1506298095.6,286047000.5,N
1506298115.4,286047001.0,N
1506298135.2,286047001.0,N
1506298155.1,286046998.7,N
1506298156.0,286046998.7,N
1506298175.8,286046999.5,N
1506298195.6,286046999.6,N
1506298215.5,286046999.6,N
1506298235.3,286046997.2,N
1506298255.1,286047000.9,N
1506298275.8,286046996.6,N
1506298295.7,286046997.9,N
1506298315.5,286046996.1,N
1506298335.3,286046996.0,N
1506298355.2,286046993.3,N
1506298375.9,286046996.1,N
1506298395.7,286046995.7,N
1506298415.6,286046995.7,N
1506298435.4,286046996.0,N
1506298455.2,286046995.7,N
1506298475.1,286046995.5,N
1506298476.0,286046995.5,N
1506298495.8,286046996.0,N
1506298515.6,286046992.2,N
1506298535.4,286046993.0,N
1506298555.3,286046994.0,N
1506298575.1,286046996.0,N
1506298595.8,286046994.9,N
1506298615.7,286046996.1,N
1506298635.5,286046996.2,N
1506298655.3,286046995.6,N
1506298675.2,286046996.8,N
1506298695.9,286046995.8,N
1506298715.7,286046995.4,N
1506298735.6,286046997.7,N
1506298755.4,286046998.0,N
1506298775.2,286046997.1,N
1506298795.1,286046995.8,N
1506298796.0,286046995.8,N
1506298815.8,286046990.9,Y
1506298835.6,286046996.8,P
1506298855.5,286047001.6,P
1506298875.3,286047007.6,P
1506298895.1,286047007.5,N
1506298915.9,286047009.8,N
1506298935.7,286047013.0,N
1506298955.5,286047016.9,N
1506298975.3,286047018.8,N
1506298995.2,286047023.5,Y
1506299015.0,286047018.1,P
1506299015.9,286047018.1,P
1506299035.8,286047016.0,P
1506299055.6,286047020.4,Y
1506299075.4,286047001.7,P
1506299095.3,286047004.4,N
1506299115.1,286047005.4,N
1506299116.0,286047005.4,N
1506299135.8,286047004.9,N
1506299155.7,286047008.2,N
1506299175.5,286047008.0,N
1506299195.3,286047007.3,N
1506299215.1,286047009.1,N
1506299235.9,286047006.7,N
1506299255.7,286047009.1,N
1506299275.5,286047008.9,N
1506299295.4,286047007.0,N
1506299315.2,286047005.0,N
1506299335.0,286047007.9,N
1506299335.9,286047007.9,N
1506299355.8,286047013.9,Y
1506299375.6,286047003.9,P
1506299395.4,286046999.8,N
1506299415.3,286047005.9,N
1506299435.1,286047007.3,N
1506299455.8,286047007.4,N
1506299475.7,286047008.8,Y
1506299495.5,286047004.2,P
1506299515.3,286047002.0,P
1506299535.2,286047005.2,P
1506299555.9,286047006.0,Y
1506299575.7,286046997.2,P
1506299595.6,286046995.2,N
1506299615.4,286046994.5,N
1506299635.2,286046990.6,N
1506299655.1,286046988.8,N
1506299656.0,286046988.8,N
1506299675.8,286046989.2,N
1506299695.6,286046986.1,N
1506299715.5,286046984.6,N
1506299735.3,286046983.0,Y
1506299755.1,286046993.2,P
1506299775.9,286046988.9,P
1506299795.7,286046987.5,P
1506299815.5,286046988.1,Y
1506299835.4,286046993.3,P
1506299855.2,286046996.4,N
1506299875.0,286046994.5,N
1506299875.9,286046994.5,N
1506299895.8,286046990.1,Y
1506299915.6,286046997.7,P
1506299935.4,286046995.0,N
1506299955.3,286046997.6,N
1506299975.1,286046995.8,N
1506299976.0,286046995.8,N
1506299995.8,286046995.7,Y
1506300015.7,286046996.5,P
1506300035.5,286046997.2,P
1506300055.3,286046995.0,P
1506300075.2,286046996.1,Y
1506300095.9,286047002.1,P
1506300115.7,286047001.4,N
1506300135.6,286047000.4,N
1506300155.4,286046998.1,N
1506300175.2,286046998.4,N
1506300195.1,286046999.1,N
1506300196.0,286046999.1,N
1506300215.8,286047000.7,N
1506300235.6,286046999.2,N
1506300255.4,286046998.9,N
1506300275.3,286046996.5,N
1506300295.1,286046996.8,N
1506300315.8,286046996.0,N
1506300335.7,286046995.5,N
1506300355.5,286046996.3,N
1506300375.3,286046993.6,Y
1506300395.2,286046996.3,P
1506300415.9,286046996.3,P
1506300435.7,286046997.1,N
1506300455.6,286046998.0,N
1506300475.4,286046995.3,Y
1506300495.2,286046999.0,P
1506300515.1,286046999.0,N
1506300516.0,286046999.0,N
1506300535.8,286046996.9,Y
1506300555.6,286046998.3,P
1506300575.5,286047000.3,N
1506300595.3,286047001.0,N
1506300615.1,286047000.9,N
1506300635.9,286046998.2,N
1506300655.7,286046998.7,N
1506300675.5,286046998.4,N
1506300695.4,286046999.4,N
1506300715.2,286046999.2,N
1506300735.0,286046997.9,N
1506300735.9,286046997.9,N
1506300755.8,286046994.9,Y
1506300775.6,286046999.5,P
1506300795.4,286046999.0,P
1506300815.3,286046999.4,N
1506300835.1,286046998.4,Y
1506300836.0,286046998.4,P
1506300855.8,286047000.6,N
1506300875.7,286047000.8,N
1506300895.5,286046996.7,Y
1506300915.3,286046996.7,P
1506300935.2,286046999.6,N
1506300955.9,286046998.9,N
1506300975.7,286046999.3,N
1506300995.6,286046998.1,N
1506301015.4,286046996.6,Y
1506301035.2,286046996.5,P
1506301055.1,286046999.6,N
1506301056.0,286046999.6,N
1506301075.8,286046996.8,N
1506301095.6,286046994.5,Y
1506301115.5,286047001.0,P
1506301135.3,286047004.7,P
1506301155.1,286047008.8,P
1506301175.9,286047014.0,Y
1506301195.7,286047009.9,P
